EW1135 Weather Reports


Display with metric or nautical units.
time (UTC)temp
F
wind
direction
speed
MPH
gust
MPH
rain 1hr
in
rain 24hr
in
rain mn
in
humidity
%
barometer
mb
20260831040011 58 65 9.0 0.0 0.00 0.00 0.00 84 1013.3
20260831034511 59 49 15.0 0.0 0.00 0.00 0.00 84 1013.4
20260831033009 59 86 16.0 0.0 0.00 0.00 0.00 84 1013.2
20260831031508 59 54 16.0 0.0 0.00 0.00 0.00 84 1013.3
20260831030007 59 51 17.0 0.0 0.00 0.00 0.00 84 1013.4
20260831024507 59 46 18.0 0.0 0.00 0.00 0.00 83 1013.5
20260831023006 60 50 17.0 0.0 0.00 0.00 0.00 83 1013.5
20260831021505 60 48 17.0 0.0 0.00 0.00 0.00 82 1013.7
20260831020053 61 51 19.0 0.0 0.00 0.00 0.00 81 1013.7
20260831014551 61 50 19.0 0.0 0.00 0.00 0.00 80 1013.9
20260831013050 62 50 15.0 0.0 0.00 0.00 0.00 80 1014.0
20260831011554 62 54 16.0 0.0 0.00 0.00 0.00 80 1014.2
20260831010046 63 52 16.0 0.0 0.00 0.00 0.00 79 1014.5
20260831004547 63 54 14.0 0.0 0.00 0.00 0.00 79 1014.8
20260831003048 63 43 13.0 0.0 0.00 0.00 0.00 79 1015.0
20260831001544 64 42 14.0 0.0 0.00 0.00 0.00 78 1015.0
20260831000035 63 36 16.0 0.0 0.00 0.00 0.00 78 1015.2
20260830234542 64 44 16.0 0.0 0.00 0.00 0.00 77 1015.3
20260830233030 65 61 16.0 0.0 0.00 0.00 0.00 77 1015.3
20260830231528 65 43 14.0 0.0 0.00 0.00 0.00 77 1015.7
20260830230028 64 54 14.0 0.0 0.00 0.00 0.00 77 1015.9
20260830224526 64 46 13.0 0.0 0.00 0.00 0.00 78 1015.9
20260830223025 63 44 15.0 0.0 0.00 0.00 0.00 78 1016.1
20260830221529 63 51 16.0 0.0 0.00 0.00 0.00 77 1016.2
20260830220022 64 45 16.0 0.0 0.00 0.00 0.00 77 1016.5
20260830214508 64 48 15.0 0.0 0.00 0.00 0.00 77 1016.7
20260830213013 64 53 15.0 0.0 0.00 0.00 0.00 78 1016.9
20260830211505 64 66 15.0 0.0 0.00 0.00 0.00 78 1016.9
20260830210006 64 52 15.0 0.0 0.00 0.00 0.00 78 1016.9
20260830204504 64 76 14.0 0.0 0.00 0.00 0.00 77 1017.1
20260830203002 64 66 12.0 0.0 0.00 0.00 0.00 78 1017.2
20260830201615 63 59 10.0 0.0 0.00 0.00 0.00 78 1017.3
20260830194537 62 75 9.0 0.0 0.00 0.00 0.00 80 1017.4
20260830193033 62 36 12.0 0.0 0.00 0.00 0.00 80 1017.5
20260830191519 61 24 11.0 0.0 0.00 0.00 0.00 81 1017.6
20260830190019 61 21 12.0 0.0 0.00 0.00 0.00 81 1017.7
20260830184519 60 25 11.0 0.0 0.00 0.00 0.00 82 1017.8
20260830183009 60 8 14.0 0.0 0.00 0.00 0.00 83 1017.7
20260830181506 60 15 13.0 0.0 0.00 0.00 0.00 82 1017.8
20260830180002 60 25 10.0 0.0 0.00 0.00 0.00 82 1017.8
20260830174602 60 41 3.0 0.0 0.00 0.00 0.00 83 1017.9
20260830173106 59 46 4.0 0.0 0.00 0.00 0.00 84 1018.1
20260830171542 58 19 3.0 0.0 0.00 0.00 0.00 84 1018.1
20260830170040 57 16 5.0 0.0 0.00 0.00 0.00 83 1018.1
20260830164550 57 30 4.0 0.0 0.00 0.00 0.00 84 1018.2
20260830163041 57 40 3.0 0.0 0.00 0.00 0.00 84 1018.3
20260830161529 57 20 4.0 0.0 0.00 0.00 0.00 84 1018.4
20260830160025 57 53 8.0 0.0 0.00 0.00 0.00 84 1018.5
20260830154531 56 124 12.0 0.0 0.00 0.00 0.00 84 1018.2
20260830153021 56 158 9.0 0.0 0.00 0.00 0.00 86 1018.2
20260830151507 54 136 3.0 0.0 0.00 0.00 0.00 87 1018.4
20260830150004 53 103 1.0 0.0 0.00 0.00 0.00 87 1018.5
20260830144600 52 77 3.0 0.0 0.00 0.00 0.00 86 1018.6
20260830144500 52 33 3.0 0.0 0.00 0.00 0.00 86 1018.6
20260830143058 52 121 2.0 0.0 0.00 0.00 0.00 86 1018.5
20260830141556 53 106 6.0 0.0 0.00 0.00 0.00 86 1018.4
20260830140058 53 121 6.0 0.0 0.00 0.00 0.00 86 1018.3
20260830134556 52 142 6.0 0.0 0.00 0.00 0.00 87 1018.4
20260830133050 51 147 0.0 0.0 0.00 0.00 0.00 86 1018.5
20260830131541 51 162 2.0 0.0 0.00 0.00 0.00 86 1018.3
20260830130036 52 48 2.0 0.0 0.00 0.00 0.00 86 1018.3
20260830124535 53 68 3.0 0.0 0.00 0.00 0.00 86 1018.3
20260830123040 53 137 1.0 0.0 0.00 0.00 0.00 85 1018.1
20260830121532 53 121 4.0 0.0 0.00 0.00 0.00 85 1018.1
20260830120031 53 71 3.0 0.0 0.00 0.00 0.00 85 1018.2
20260830114530 54 78 5.0 0.0 0.00 0.00 0.00 85 1018.1
20260830113029 54 147 5.0 0.0 0.00 0.00 0.00 85 1017.9
20260830111515 53 139 4.0 0.0 0.00 0.00 0.00 84 1017.9
20260830110013 53 39 0.0 0.0 0.00 0.00 0.00 84 1018.0
20260830104508 54 39 0.0 0.0 0.00 0.00 0.00 84 1018.0
20260830103010 55 39 0.0 0.0 0.00 0.00 0.00 83 1018.1
20260830101503 55 39 2.0 0.0 0.00 0.00 0.00 83 1018.1
20260830100003 56 56 2.0 0.0 0.00 0.00 0.00 82 1018.3
20260830094600 57 79 3.0 0.0 0.00 0.00 0.00 82 1018.2
20260830093102 58 98 3.0 0.0 0.00 0.00 0.00 83 1018.2
20260830091645 58 67 5.0 0.0 0.00 0.00 0.00 83 1018.2
20260830090044 58 73 5.0 0.0 0.00 0.00 0.00 83 1018.2
20260830084542 58 75 4.0 0.0 0.00 0.00 0.00 83 1018.3
20260830083046 57 75 4.0 0.0 0.00 0.00 0.00 83 1018.3
20260830081544 57 73 4.0 0.0 0.00 0.00 0.00 83 1018.4
20260830080039 57 85 4.0 0.0 0.00 0.00 0.00 83 1018.4
20260830074538 57 69 4.0 0.0 0.00 0.00 0.00 83 1018.5
20260830073045 58 79 4.0 0.0 0.00 0.00 0.00 83 1018.5
20260830071533 58 71 5.0 0.0 0.00 0.00 0.00 83 1018.4
20260830070022 58 73 5.0 0.0 0.00 0.00 0.05 83 1018.4
20260830064522 58 71 5.0 0.0 0.00 0.00 0.05 83 1018.5
20260830063021 58 73 4.0 0.0 0.00 0.00 0.05 83 1018.4
20260830061521 58 75 4.0 0.0 0.00 0.00 0.05 83 1018.6
20260830060020 58 83 5.0 0.0 0.00 0.00 0.05 83 1018.8
20260830054519 58 95 4.0 0.0 0.00 0.00 0.05 83 1018.8
20260830053021 58 65 4.0 0.0 0.00 0.00 0.05 83 1018.9
20260830051509 58 82 4.0 0.0 0.00 0.00 0.05 83 1018.8
20260830050008 58 75 4.0 0.0 0.00 0.00 0.05 83 1018.9
20260830044507 59 70 4.0 0.0 0.00 0.00 0.05 83 1018.8
20260830043007 59 79 5.0 0.0 0.00 0.00 0.05 83 1018.8